Date,TemperatureHighF,TemperatureAvgF,TemperatureLowF,DewpointHighF,DewpointAvgF,DewpointLowF,HumidityHigh,HumidityAvg,HumidityLow,PressureMaxIn,PressureMinIn,WindSpeedMaxMPH,WindSpeedAvgMPH,GustSpeedMaxMPH,PrecipitationSumIn
2013-8-1,61.9,55.0,52.1,55.0,52.2,51.0,95,90,78,30.07,29.96,0,0,0,0.00
2013-8-2,61.7,54.1,50.4,55.0,51.6,49.0,97,91,77,29.98,29.92,0,0,0,0.00
2013-8-3,60.4,53.9,51.1,55.0,51.7,50.0,97,92,80,29.97,29.92,0,0,0,0.00
2013-8-4,59.1,53.7,51.2,54.0,51.5,50.0,97,93,80,30.01,29.96,0,0,0,0.00
2013-8-5,56.8,53.0,52.3,55.0,52.1,51.0,97,96,92,30.03,29.98,0,0,0,0.02
2013-8-6,61.2,56.8,51.3,56.0,54.1,51.0,97,90,80,30.04,29.98,0,0,0,0.03
2013-8-7,65.5,57.9,53.8,58.0,55.2,53.0,99,91,76,30.10,30.03,0,0,0,0.02
2013-8-8,63.3,57.0,53.3,58.0,54.5,52.0,97,91,79,30.03,29.94,0,0,0,0.11
2013-8-9,62.5,56.3,52.4,58.0,54.4,51.0,97,93,84,29.97,29.91,0,0,0,0.03
2013-8-10,63.1,59.0,55.3,58.0,56.1,54.0,100,90,81,30.05,30.00,0,0,0,0.01
2013-8-11,58.0,54.9,52.9,55.0,53.5,52.0,97,95,89,30.02,29.95,0,0,0,0.01
2013-8-12,62.0,55.4,52.6,57.0,53.7,52.0,97,94,83,30.00,29.94,0,0,0,0.00
2013-8-13,68.0,57.7,53.4,58.0,54.2,52.0,96,88,70,29.98,29.93,0,0,0,0.00
2013-8-14,63.6,57.6,52.5,60.0,55.1,51.0,96,91,80,29.98,29.91,0,0,0,0.00
2013-8-15,67.6,60.9,57.2,63.0,59.2,56.0,97,94,84,29.97,29.90,0,0,0,0.00
2013-8-16,61.8,58.1,55.4,59.0,56.8,54.0,97,95,89,30.00,29.93,0,0,0,0.00
2013-8-17,64.1,57.9,54.0,59.0,55.9,53.0,97,93,83,29.99,29.86,0,0,0,0.00
2013-8-18,68.8,60.4,54.4,61.0,56.7,53.0,98,87,73,29.88,29.79,0,0,0,0.00
2013-8-19,65.0,58.7,53.9,58.0,55.9,53.0,96,90,78,29.90,29.79,0,0,0,0.00
2013-8-20,69.4,59.3,55.4,60.0,56.2,54.0,97,89,71,29.89,29.83,0,0,0,0.00
2013-8-21,65.2,58.6,55.2,57.0,54.6,53.0,93,87,73,29.94,29.87,0,0,0,0.00
2013-8-22,65.1,58.7,55.5,56.0,54.3,53.0,92,85,72,29.97,29.89,0,0,0,0.00
2013-8-23,58.8,56.3,54.0,55.0,53.8,52.0,94,91,85,29.92,29.82,0,0,0,0.00
2013-8-24,64.6,58.1,54.1,58.0,55.6,53.0,97,91,79,29.90,29.83,0,0,0,0.00
2013-8-25,67.4,61.5,57.9,63.0,59.4,57.0,98,93,83,29.94,29.88,0,0,0,0.01
2013-8-26,64.8,58.9,56.5,59.0,56.3,55.0,96,91,78,30.00,29.90,0,0,0,0.03
2013-8-27,63.2,57.5,53.3,60.0,55.8,52.0,97,94,84,29.90,29.83,0,0,0,0.00
2013-8-28,67.5,60.2,55.5,63.0,58.7,55.0,98,94,84,29.94,29.84,0,0,0,0.01
2013-8-29,66.6,61.2,57.6,63.0,59.6,57.0,98,94,83,30.06,29.94,0,0,0,0.02
2013-8-30,69.9,61.1,56.5,63.0,58.5,56.0,98,91,77,30.04,29.92,0,0,0,0.01
2013-8-31,62.8,57.7,54.5,59.0,56.1,54.0,97,94,87,29.98,29.90,0,0,0,0.00